Billings, MT

1:33 PM MDT on March 29, 2017 (GMT -0600)
Billings Logan International

Weather History for KBIL - June, 2014

Change the Weather History Date:

Sunday, June 15, 2014

  Actual Average Record
Temperature  
Mean Temperature 61 °F 64 °F  
Max Temperature 73 °F 77 °F 98 °F (1987)
Min Temperature 49 °F 52 °F 40 °F (1991)
Degree Days  
Heating Degree Days 4 3  
Month to date heating degree days 70 67  
Since 1 June heating degree days 70 67  
Since 1 July heating degree days 7147 6753  
Cooling Degree Days 0 2  
Month to date cooling degree days 3 25  
Year to date cooling degree days 19 42  
Since 1 June cooling degree days 3 25  
Growing Degree Days 10 (Base 50)    
Moisture  
Dew Point 41 °F    
Average Humidity 51    
Maximum Humidity 72    
Minimum Humidity 29    
Precipitation  
Precipitation 0.04 in 0.07 in 1.05 in (1992)
Month to date precipitation 1.04 1.15  
Year to date precipitation 8.87 7.01  
Snow  
Snow 0.00 in 0.00 in T in (1995)
Month to date snowfall T 0.0  
Since 1 June snowfall T 0.0  
Since 1 July snowfall 103.5 55.0  
Snow Depth 0.00 in    
Sea Level Pressure  
Sea Level Pressure 29.72 in    
Wind  
Wind Speed 8 mph (WNW)    
Max Wind Speed 21 mph    
Max Gust Speed 27 mph    
Visibility 10 miles    
Events Rain , Thunderstorm    
T = Trace of Precipitation, MM = Missing Value Source: NWS Daily Summary

Daily Weather History Graph

Daily Weather History Graph

Search for Another Location

Airport or City:

Trip Planner

Search our weather history database for the weather conditions in past years. The results will help you decide how hot, cold, wet, or windy it might be!

Date:

Astronomy

Jun. 15, 2014 Rise Set
Actual Time 5:23 AM MDT 9:06 PM MDT
Civil Twilight 4:45 AM MDT 9:44 PM MDT
Nautical Twilight 3:53 AM MDT 10:35 PM MDT
Astronomical Twilight 2:43 AM MDT 11:46 PM MDT
Moon 11:08 PM MDT (6/15) 8:28 AM MDT (6/15)
Length of Visible Light 16h 59m
Length of Day
15h 42m
Waning Gibbous, 91% of the Moon is Illuminated
Jun 15
Waning Gibbous
Jun 19
Last Quarter
Jun 27
New
Jul 5
First Quarter
Jul 12
Full

Hourly Weather History & Observations

Time (MDT) Temp. Dew Point Humidity Pressure Visibility Wind Dir Wind Speed Gust Speed Precip Events Conditions
12:53 AM 52.0 °F 39.9 °F 63% 29.81 in 10.0 mi WNW 11.5 mph - N/A   Overcast
1:53 AM 52.0 °F 42.1 °F 69% 29.79 in 10.0 mi WSW 10.4 mph - N/A   Overcast
2:53 AM 52.0 °F 41.0 °F 66% 29.80 in 10.0 mi WSW 8.1 mph - N/A   Overcast
3:53 AM 51.1 °F 39.9 °F 66% 29.77 in 10.0 mi NW 5.8 mph - N/A   Overcast
4:53 AM 51.1 °F 41.0 °F 68% 29.78 in 10.0 mi SW 8.1 mph - N/A   Mostly Cloudy
5:53 AM 50.0 °F 39.9 °F 68% 29.78 in 10.0 mi SW 8.1 mph - N/A   Scattered Clouds
6:53 AM 50.0 °F 39.9 °F 68% 29.79 in 10.0 mi SW 9.2 mph - N/A   Partly Cloudy
7:53 AM 53.1 °F 39.9 °F 61% 29.80 in 10.0 mi SW 9.2 mph - N/A   Partly Cloudy
8:53 AM 57.0 °F 42.1 °F 57% 29.79 in 10.0 mi SW 6.9 mph - N/A   Partly Cloudy
9:53 AM 61.0 °F 41.0 °F 48% 29.75 in 10.0 mi WSW 11.5 mph - N/A   Partly Cloudy
10:53 AM 63.0 °F 41.0 °F 45% 29.74 in 10.0 mi Variable 5.8 mph - N/A   Scattered Clouds
11:53 AM 66.0 °F 37.9 °F 36% 29.73 in 10.0 mi West 9.2 mph - N/A   Scattered Clouds
12:53 PM 66.9 °F 37.0 °F 33% 29.70 in 10.0 mi West 8.1 mph - N/A   Scattered Clouds
1:53 PM 68.0 °F 37.0 °F 32% 29.69 in 10.0 mi Variable 6.9 mph - N/A   Mostly Cloudy
2:53 PM 70.0 °F 37.9 °F 31% 29.67 in 10.0 mi Variable 5.8 mph - N/A   Mostly Cloudy
3:53 PM 71.1 °F 37.9 °F 30% 29.66 in 10.0 mi NE 3.5 mph - N/A   Mostly Cloudy
4:53 PM 72.0 °F 39.0 °F 30% 29.64 in 10.0 mi ENE 6.9 mph - N/A   Mostly Cloudy
5:53 PM 71.1 °F 37.0 °F 29% 29.64 in 10.0 mi NNE 5.8 mph - N/A   Mostly Cloudy
6:53 PM 68.0 °F 39.0 °F 35% 29.65 in 10.0 mi NNW 13.8 mph 20.7 mph N/A   Mostly Cloudy
7:12 PM 64.0 °F 41.0 °F 43% 29.70 in 10.0 mi North 15.0 mph - N/A Thunderstorm Thunderstorm
7:53 PM 63.0 °F 43.0 °F 48% 29.67 in 10.0 mi NNW 12.7 mph - 0.00 in Rain , Thunderstorm Light Thunderstorms and Rain
8:53 PM 59.0 °F 46.0 °F 62% 29.70 in 10.0 mi Calm Calm - 0.04 in Thunderstorm Thunderstorm
9:08 PM 59.0 °F 48.0 °F 67% 29.74 in 10.0 mi ENE 3.5 mph - N/A   Mostly Cloudy
9:53 PM 57.9 °F 46.0 °F 65% 29.70 in 10.0 mi North 11.5 mph - N/A   Mostly Cloudy
9:57 PM 57.9 °F 46.9 °F 67% 29.75 in 10.0 mi NNW 15.0 mph - N/A Thunderstorm Thunderstorm
10:19 PM 55.9 °F 46.0 °F 69% 29.74 in 10.0 mi North 11.5 mph - 0.00 in   Scattered Clouds
10:53 PM 55.0 °F 46.0 °F 72% 29.68 in 10.0 mi North 10.4 mph - 0.00 in   Mostly Cloudy
11:53 PM 55.0 °F 45.0 °F 69% 29.66 in 10.0 mi Calm Calm - N/A   Scattered Clouds